Regional Weather Roundup
Issued by NWS Albany, NY

Home | Current Version | Previous Version | Text Only | Print | Product List | Glossary On
Versions: 1 2 3 4 5 6 7 8 9 10 11 12 13 14 15 16 17 18 19 20 21 22 23 24 25 26 27 28 29 30 31 32 33 34 35 36 37 38 39 40 41 42 43 44 45 46 47 48 49 50
000
ASUS41 KALY 270110
RWRALY

NEW YORK STATE HOURLY WEATHER ROUNDUP
NATIONAL WEATHER SERVICE ALBANY NY
900 PM EDT MON JUN 26 2017

NOTE: "FAIR" INDICATES FEW OR NO CLOUDS BELOW 12,000 FEET WITH NO
SIGNIFICANT WEATHER AND/OR NO OBSTRUCTIONS TO VISIBILITY.

NYZ032-033-038>043-046>054-057>066-NYZ062>081-082-084-270200-
EAST


CITY           SKY/WX    TMP DP  RH WIND       PRES   REMARKS
ALBANY         CLOUDY    61  55  81 N3        29.96F
GLENS FALLS    CLEAR     57  55  93 CALM      29.96F
POUGHKEEPSIE   PTCLDY    69  49  48 S3        29.95R
NEWBURGH       PTCLDY    70  52  52 SW9       29.98R
MONTGOMERY     CLEAR     66  51  58 CALM      29.96S
WHITE PLAINS   CLEAR     67  55  65 S5        29.98S
ISLIP          PTCLDY    70  61  73 SW9       29.98F
NEW YORK CITY  PTCLDY    72  62  71 S10       29.96F
CENTRAL PARK   CLEAR     74  46  36 MISG      29.99F
$$

NYZ005>009-017-018-044>046-055-056-270200-
CENTRAL


CITY           SKY/WX    TMP DP  RH WIND       PRES   REMARKS
FULTON         CLOUDY    58  54  86 S6        29.96S
SYRACUSE       CLOUDY    60  54  80 S6        29.95F
ROME           LGT RAIN  63  55  75 SW9       29.98R
ELMIRA         PTCLDY    59  57  93 N3        29.99R
BINGHAMTON     LGT RAIN  54  51  90 NW5       30.00S
MONTICELLO     CLEAR     64  46  52 SW5       30.00S
$$

NYZ026>034-041>043-087-270200-
NORTH


CITY           SKY/WX    TMP DP  RH WIND       PRES   REMARKS
WATERTOWN      LGT RAIN  55  54  96 CALM      29.95F
FORT DRUM      NOT AVBL
OGDENSBURG     MOCLDY    59  56  88 CALM      29.92F
MASSENA        CLOUDY    61  57  87 CALM      29.93S
SARANAC LAKE   CLEAR     52  52 100 CALM      29.95S
PLATTSBURGH    CLOUDY    63  55  75 CALM      29.93S
$$

NYZ001>004-010>016-019>021-085-270200-
WEST


CITY           SKY/WX    TMP DP  RH WIND       PRES   REMARKS
NIAGARA FALLS  CLOUDY    58  50  75 W3        29.95F
BUFFALO        PTCLDY    62  44  51 NW12      29.96R
DUNKIRK        CLEAR     64  50  60 SW10      29.97R
JAMESTOWN      CLEAR     57  45  62 SW7       30.00S
WELLSVILLE     PTCLDY    56  50  80 SW8       30.02F
ROCHESTER      MOCLDY    61  50  67 VRB3      29.95S
PENN YAN       MOCLDY    58  50  75 S7        29.98F
$$

             KEY
       WCI = WIND CHILL INDEX
       VSB = VISIBILITY
       HX  = HEAT INDEX
$$



USA.gov is the U.S. government's official web portal to all federal, state and local government web resources and services.